2024-203A

Last updated on Thu Nov 21 2024 00:02:05 GMT+0000 (Coordinated Universal Time)

1 61869U 24203A 24325.56771569 .00016954 00000+0 94095-3 0 9997 2 61869 97.4911 30.1751 0016870 172.5278 187.6208 15.13691250 1729
UTC large
Height (km)
Speed (km/s)
/
Latitude / Longitude
Inclination (degrees)
Orbital Period (minutes)
Azimuth
Elevation
Range (km)
Doppler Factor

Next 0 passes for location: London (51.5072 / 0.1276)

Sorry there are no passes over London.